Regional Weather Roundup
Issued by NWS San Angelo, TX

Home | Current Version | Previous Version | Text Only | Print | Product List | Glossary On
Versions: 1 2 3 4 5 6 7 8 9 10 11 12 13 14 15 16 17 18 19 20 21 22 23 24 25 26 27 28 29 30 31 32 33 34 35 36 37 38 39 40 41 42 43 44 45 46 47 48 49 50
000
ASUS44 KSJT 310311
RWRSJT
WEST CENTRAL TEXAS REGIONAL WEATHER ROUNDUP
NATIONAL WEATHER SERVICE SAN ANGELO TX
1000 PM CDT SAT JUL 30 2016

NOTE: "FAIR" INDICATES FEW OR NO CLOUDS BELOW 12,000 FEET WITH NO
SIGNIFICANT WEATHER AND/OR OBSTRUCTIONS TO VISIBILITY.

TXZ049-054-064>066-071>073-076>078-098-099-113-114-127-128-139-140-
154-155-168>170-310400
...LOCATIONS ACROSS WEST CENTRAL TEXAS...

CITY           SKY/WX    TMP DP  RH WIND       PRES   REMARKS
SAN ANGELO     CLEAR     87  60  40 S7        29.95R
ABILENE        CLOUDY    87  62  43 SE10      29.95R
DYESS AFB      PTCLDY    88  63  43 SE9       29.92S
JUNCTION       CLEAR     87  64  46 SE10      29.97R
SWEETWATER     CLEAR     84  59  43 SE7       29.98S
BROWNWOOD      CLEAR     88  63  42 SE10      29.95R
COLEMAN        CLEAR     86  61  43 SE7       29.95R
SONORA         CLEAR     88  61  40 SE9       30.02R
OZONA          FAIR      86  59  39 S13G18    30.01R
BRADY          NOT AVBL
$$

TEXAS PANHANDLE/OKLAHOMA PANHANDLE

CITY           SKY/WX    TMP DP  RH WIND       PRES   REMARKS
AMARILLO       CLEAR     78  61  55 SE16      30.02R
BORGER         CLEAR     83  62  49 S16G23    29.96R
CANADIAN       CLEAR     83  64  51 S12G17    29.93R
DALHART        CLOUDY    81  55  40 S10       30.00R
DUMAS          CLEAR     79  58  48 S9        30.00R
GUYMON         NOT AVBL
HEREFORD       CLEAR    N/A N/A N/A SE16G24   30.02R
PAMPA          CLEAR     80  59  48 S14       30.00R
PERRYTON       CLEAR     85  63  47 S15G22    29.94R
$$

SOUTHERN PANHANDLE/SOUTH PLAINS/ROLLING PLAINS

CITY           SKY/WX    TMP DP  RH WIND       PRES   REMARKS
LUBBOCK        PTCLDY    79  60  52 SE12      30.01R
SNYDER           N/A     87  59  38 SE7       29.96R
CHILDRESS      CLOUDY    78  62  57 S7        29.93R
SEMINOLE       CLEAR     83  53  35 SE5       30.00R
$$

PERMIAN BASIN

CITY           SKY/WX    TMP DP  RH WIND       PRES   REMARKS
MIDLAND        CLEAR     89  57  33 S10       29.97R
ODESSA         CLEAR     88  59  37 S16       29.99R
WINK           CLEAR     87  58  37 S12       29.94R
$$

FAR WEST/SOUTHWEST MOUNTAINS/TRANS PECOS

CITY           SKY/WX    TMP DP  RH WIND       PRES   REMARKS
ALPINE         CLOUDY    68  62  81 SW5       30.13R
DRYDEN           N/A     84  63  49 SE10      29.94R
EL PASO        MOCLDY    90  51  26 SE7       29.94R
FORT STOCKTON  CLEAR     83  61  47 SE13      29.98R
GUADALUPE PASS CLEAR     78  53  41 S9G17     30.13R
MARFA          CLOUDY    69  61  75 N8        30.12R
PECOS          CLEAR     85  58  38 SE7       29.93R
$$

DALLAS/FORT WORTH METROPLEX

CITY           SKY/WX    TMP DP  RH WIND       PRES   REMARKS
DFW AIRPORT    PTCLDY    91  67  44 SE12      29.93R
FTW MEACHAM    CLEAR     91  65  41 SE9       29.92R
DAL-EXECUTIVE  CLEAR     88  68  51 SE8       29.94R
GRAND PRAIRIE  CLEAR     89  66  46 SE8       29.94R
ADDISON        CLEAR     91  68  46 SE16G23   29.94R
MESQUITE       CLEAR     84  68  58 SE5       29.94R
LANCASTER      CLEAR     87  68  54 SE3       29.95R
$$

NORTH CENTRAL TEXAS

CITY           SKY/WX    TMP DP  RH WIND       PRES   REMARKS
SHRMAN/DENISON CLEAR     89  66  47 SE14      29.94S
GAINESVILLE    CLEAR     82  67  60 SE6       29.95R
BRIDGEPORT     CLEAR     86  67  52 S7        29.94R
DENTON         CLEAR     85  67  54 SE8       29.92R
WAXAHACHIE     CLEAR     85  69  58 SE3       29.95R
GRANBURY       CLEAR     91  64  41 SE8       29.94R
$$

WESTERN NORTH TEXAS

CITY           SKY/WX    TMP DP  RH WIND       PRES   REMARKS
WICHITA FALLS  CLEAR     84  66  54 SE9       29.89R
VERNON         PTCLDY    87  58  36 SE6       29.90R
BRECKENRIDGE   CLEAR     88  62  41 SE8       29.93R
COMANCHE       CLEAR     85  64  49 SE8       29.95R
$$

CENTRAL AND SOUTH CENTRAL TEXAS

CITY           SKY/WX    TMP DP  RH WIND       PRES   REMARKS
AUSTIN/BERGSTM PTCLDY    82  73  74 S7        29.95R
WACO           CLEAR     88  67  49 S10       29.93R
HILLSBORO      CLEAR     86  67  52 SE8       29.95R
TEMPLE         CLEAR     86  68  54 S8        29.95R
KILLEEN-GRAY   CLEAR     84  66  54 SE6       29.95R
FORT HOOD      CLEAR     85  66  52 S6        29.93R
GEORGETOWN     CLEAR     88  64  45 SE5       29.95R
LAGO VISTA     FAIR      86  67  54 S5        29.98S
SAN MARCOS     PTCLDY    84  73  70 S8        29.98R
NEW BRAUNFELS  PTCLDY    85  73  67 S10       29.95R
RANDOLPH AFB   PTCLDY    82  73  76 SE7       29.96R
SAN ANTONIO    PTCLDY    86  71  60 SE12      29.97R
STINSON        CLEAR     85  71  63 SE7       29.94R
PLEASANTON     NOT AVBL
LA GRANGE        N/A     85  76  74 S5        29.94R HAZE
GIDDINGS       CLEAR     83  73  70 S5        30.00R
$$

EAST TEXAS

CITY           SKY/WX    TMP DP  RH WIND       PRES   REMARKS
PARIS          CLEAR     79  64  61 E10       29.97R
CLARKSVILLE    NOT AVBL
TYLER          CLEAR     85  70  60 S5        29.96R
LONGVIEW       CLEAR     81  73  76 S7        29.95R
PALESTINE      CLEAR     84  71  65 SE3       29.98R
NACOGDOCHES    PTCLDY   N/A N/A N/A SE3       29.96R
$$

TEXAS HILL COUNTRY AND EDWARDS PLATEAU

CITY           SKY/WX    TMP DP  RH WIND       PRES   REMARKS
LLANO          CLEAR     88  64  45 SE5       29.99R
HORSESHOE BAY  FAIR      83  67  58 SE5       29.96S
KERRVILLE      CLEAR     82  67  61 SE3       29.99R
FREDERICKSBRG  CLEAR     82  61  49 CALM      29.99S
ROCKSPRINGS    CLEAR     82  64  54 SE7       30.03R
HONDO          CLEAR     86  72  62 SE13      29.96R
UVALDE         CLEAR     85  68  57 E9        29.94R
DEL RIO        CLEAR     90  62  39 SE8       29.89R
$$

SOUTHEAST TEXAS

CITY           SKY/WX    TMP DP  RH WIND       PRES   REMARKS
COLLEGE STN    CLEAR     86  74  67 SE10      29.97R
CALDWELL       CLEAR     82  73  74 SE7       29.99R
CROCKETT       PTCLDY    84  73  70 S8        30.00R
BRENHAM        CLEAR     84  74  73 SE3       29.98R
HUNTSVILLE     PTCLDY    82  72  71 S7        29.98R
CONROE         CLEAR     81  74  79 SE3       29.98R
HOUSTON BUSH   PTCLDY    85  75  72 S5        29.97R
HOUSTON HOBBY  PTCLDY    83  76  79 S7        29.97R
PERLAND        CLEAR     85  77  77 S3        29.99R
WHARTON          N/A     80  76  87 SE3         N/A
$$

THE UPPER TEXAS COAST

CITY           SKY/WX    TMP DP  RH WIND       PRES   REMARKS
ORANGE         CLEAR     82  76  82 CALM      30.01R
PORT ARTHUR    CLEAR     80  77  90 CALM      29.99R
GALVESTON      CLEAR     84  79  85 S9        29.99R
ANGLETON       CLEAR     82  77  84 CALM      29.98R
BAY CITY       CLEAR     80  76  88 SE5       29.98R
$$

TEXAS COASTAL BEND, RIO GRANDE PLAINS DEEP SOUTH TEXAS

CITY           SKY/WX    TMP DP  RH WIND       PRES   REMARKS
VICTORIA       CLEAR     81  75  82 S5        29.96R
BEEVILLE       FAIR      82  76  83 SE7       29.95R
ROCKPORT       CLEAR     84  75  74 S12G18    29.95R
PORT ARANSAS   CLEAR     84  79  85 S13       29.96R
PORT LAVACA    CLEAR     81  78  90 S8        29.96S
CORPUS CHRISTI PTCLDY    84  78  82 SE12      29.95R
KINGSVILLE NAS CLEAR     83  78  85 SE15      29.94R
COTULLA        CLEAR     88  70  55 SE15      29.92R
LAREDO         CLEAR     88  72  58 E14       29.91R
BROWNSVILLE    CLEAR     83  76  79 SE13      29.96R
PORT ISABEL    CLEAR     84  78  82 SE14      29.95R
HEBBRONVILLE   CLEAR     86  70  58 SE10      29.95R
MCALLEN        CLEAR     87  73  62 SE16      29.94R
WESLACO        CLEAR     81  25  12 SE12G18   29.93R
FALFURRIAS     CLEAR     84  73  68 SE7       29.94R
EDINBURG       CLEAR     86  73  63 SE9       29.94R
$$



USA.gov is the U.S. government's official web portal to all federal, state and local government web resources and services.